AO-07 1 07530U 74089B 17173.43580126 -.00000041 00000-0 22815-4 0 9999 2 07530 101.6306 142.0167 0011794 314.1942 159.2850 12.53627466949285 UO-11 1 14781U 84021B 17173.56578394 .00000101 00000-0 18723-4 0 9999 2 14781 097.6968 219.0834 0008642 172.1773 187.9578 14.82903173770145 LO-19 1 20442U 90005G 17173.38139069 -.00000018 00000-0 93576-5 0 9999 2 20442 098.5759 109.8428 0012641 128.7355 231.4961 14.32862453432300 HUBBLE 1 20580U 90037B 17173.63983194 .00000492 00000-0 19331-4 0 9992 2 20580 028.4704 331.4908 0002610 230.4386 216.6064 15.08786561291021 MET-2/21 1 22782U 93055A 17173.59039451 .00000003 00000-0 -10515-4 0 9998 2 22782 082.5480 019.2995 0023505 057.6294 010.9761 13.83800577202171 AO-27 1 22825U 93061C 17173.51035735 -.00000009 00000-0 14074-4 0 9996 2 22825 098.8125 139.1570 0007714 322.6643 037.4001 14.29998859237893 IO-26 1 22826U 93061D 17173.47023358 -.00000017 00000-0 11170-4 0 9993 2 22826 098.8067 139.1979 0008092 311.8887 048.1604 14.30327660238080 FO-29 1 24278U 96046B 17173.63555217 -.00000042 00000-0 -36506-5 0 9994 2 24278 098.5632 056.1681 0349756 323.4579 034.3148 13.53076675029368 NOAA-15 1 25338U 98030A 17173.54835289 .00000081 00000-0 53098-4 0 9992 2 25338 098.7814 184.4699 0010431 184.7895 175.3186 14.25800746993775 GO-32 1 25397U 98043D 17173.39583663 -.00000026 00000-0 73462-5 0 9998 2 25397 098.6102 115.6227 0001562 033.4765 326.6513 14.23623760984315 ISS 1 25544U 98067A 17173.57229360 .00001906 00000-0 36110-4 0 9994 2 25544 051.6433 011.4847 0004451 309.9001 085.1029 15.54072654062591 NO-44 1 26931U 01043C 17173.21172853 -.00000033 00000-0 19018-4 0 9997 2 26931 067.0520 078.2331 0007783 264.8252 095.1961 14.30464070820999 SO-50 1 27607U 02058C 17173.42592209 -.00000002 00000-0 20042-4 0 9994 2 27607 064.5556 109.5531 0029619 093.8748 266.5742 14.75333083779759 CO-55 1 27844U 03031E 17173.49300566 .00000054 00000-0 44079-4 0 9991 2 27844 098.6889 182.4223 0009227 339.5112 020.5694 14.22043068725034 CO-57 1 27848U 03031J 17173.49421703 .00000046 00000-0 41091-4 0 9994 2 27848 098.6983 182.6848 0009353 349.2110 010.8866 14.21657104724925 RS-22 1 27939U 03042A 17173.56720088 .00000122 00000-0 30328-4 0 9999 2 27939 097.9399 318.1341 0012418 203.4300 224.9280 14.66572168733968 NOAA-18 1 28654U 05018A 17173.58031279 .00000002 00000-0 26642-4 0 9999 2 28654 099.1818 195.9266 0015293 059.3589 300.9087 14.12340469623024 CO-58 1 28895U 05043F 17173.43837796 .00000127 00000-0 33097-4 0 9996 2 28895 097.8652 335.4880 0018101 124.6095 235.6818 14.63402803621025 Falconsat-3 1 30776U 07006E 17173.05053624 .00002220 00000-0 71153-4 0 9997 2 30776 035.4373 035.7653 0003440 348.0520 012.0124 15.32288098569008 CO-65 1 32785U 08021C 17173.48829888 .00000243 00000-0 32204-4 0 9994 2 32785 097.5660 197.5196 0014014 145.3180 214.8954 14.87893187495614 AAUSAT2 1 32788U 08021F 17173.52536178 .00000618 00000-0 63190-4 0 9993 2 32788 097.5583 209.3096 0013597 110.4255 249.8427 14.93879580496378 DO-64 1 32789U 08021G 17173.61019931 .00000967 00000-0 72514-4 0 9994 2 32789 097.5591 231.7280 0014749 084.8268 275.4641 15.04892221497587 CO-66 1 32791U 08021J 17173.07845780 .00000380 00000-0 44563-4 0 9998 2 32791 097.5631 201.5082 0014683 132.5119 227.7343 14.90227990495792 RS-30 1 32953U 08025A 17173.59526938 .00000035 00000-0 18088-3 0 9999 2 32953 082.5030 236.2896 0017590 272.8724 087.0343 12.43077282412099 PRISM 1 33493U 09002B 17173.51564224 .00000780 00000-0 75628-4 0 9998 2 33493 098.1691 056.1766 0017095 066.0878 294.2026 14.95684604456575 NOAA-19 1 33591U 09005A 17173.58277209 .00000045 00000-0 49406-4 0 9990 2 33591 099.0928 140.4844 0012908 256.5122 103.4610 14.12189061431419 TISAT-1 1 36799U 10035E 17173.38068609 .00000296 00000-0 36460-4 0 9992 2 36799 098.0622 296.2118 0011280 314.5063 045.5232 14.90398517376358 JUGNU 1 37839U 11058B 17173.10559081 .00000301 00000-0 18492-4 0 9995 2 37839 019.9625 060.6538 0018955 237.4612 271.3488 14.12585576294399 SRMSAT 1 37841U 11058D 17173.31064800 .00000287 00000-0 12636-4 0 9998 2 37841 019.9720 101.1973 0011996 137.3898 339.3655 14.10576889293917 AO-71 1 37854U 11061E 17173.30769418 .00001525 00000-0 88908-4 0 9993 2 37854 101.7028 049.5416 0167823 059.8547 301.9175 15.04097152307259 HRBE 1 37855U 11061F 17173.58749288 .00001698 00000-0 96280-4 0 9990 2 37855 101.7159 047.7645 0180892 065.5592 296.4371 15.03059403307133 ALMASAT-1 1 38078U 12006B 17173.60518495 .00010611 37344-5 12324-3 0 9992 2 38078 069.4385 117.7408 0311942 282.6750 073.9724 15.22255919285616 HORYU-2 1 38340U 12025D 17173.44517480 .00000215 00000-0 39839-4 0 9994 2 38340 098.3761 177.5517 0010266 276.4149 083.5890 14.75343191263658 RS-40 1 38735U 12041C 17173.60476427 -.00000004 00000-0 -99628-4 0 9993 2 38735 082.4761 320.8050 0016834 020.0914 340.0825 12.42574575222349 BEESAT-3 1 39134U 13015E 17173.48818512 .00001040 00000-0 60350-4 0 9999 2 39134 064.8645 209.3529 0036037 266.9341 092.7662 15.17810534229904 BEESAT-2 1 39136U 13015G 17173.58867536 .00000831 00000-0 54106-4 0 9991 2 39136 064.8689 219.7913 0033118 282.2710 077.4707 15.15093010229702 ZACUBE-1 1 39417U 13066B 17173.56626149 .00000217 00000-0 34197-4 0 9996 2 39417 097.6291 215.5487 0057855 251.9064 107.5842 14.80711741193575 TRITON-1 1 39427U 13066M 17173.50867714 .00000220 00000-0 43575-4 0 9990 2 39427 097.6372 188.5082 0113609 332.4640 027.0575 14.67461283191633 GOMX-1 1 39430U 13066Q 17173.45339932 .00000251 00000-0 54486-4 0 9991 2 39430 097.6648 172.0872 0152694 026.9637 333.9394 14.58871384190517 LO-74 1 39440U 13066AA 17173.53444008 .00000194 00000-0 34508-4 0 9991 2 39440 097.6283 204.6530 0079222 283.3200 075.9185 14.75453095191680 AO-73 1 39444U 13066AE 17173.34064304 .00000277 00000-0 41047-4 0 9999 2 39444 097.6306 216.3944 0057016 249.2976 110.2120 14.81445006191780 SPROUT 1 39770U 14029E 17173.48242741 .00000747 00000-0 91109-4 0 9995 2 39770 097.8726 272.7993 0008063 318.5430 041.5164 14.86240360166926 DUCHIFAT-1 1 40021U 14033M 17173.53701259 .00000307 00000-0 37823-4 0 9996 2 40021 097.9187 086.7107 0011647 286.5562 073.4375 14.89892592163390 NANOSATCBR1 1 40024U 14033Q 17173.20555831 .00000293 00000-0 36928-4 0 9995 2 40024 097.9148 085.2586 0010951 289.1051 070.8980 14.89217452162774 EO-79 1 40025U 14033R 17173.32220082 .00000254 00000-0 33436-4 0 9994 2 40025 097.9127 084.4095 0011197 291.5999 068.4024 14.88421129162745 DTUSAT-2 1 40030U 14033W 17173.19423197 .00000245 00000-0 32805-4 0 9996 2 40030 097.9094 083.3902 0010587 286.0782 073.9268 14.88044428162687 EO-80 1 40032U 14033Y 17173.50565584 .00000260 00000-0 34405-4 0 9995 2 40032 097.9100 083.7071 0010555 285.3311 074.6738 14.87979247162712 ANTELSAT 1 40034U 14033AA 17173.30807327 .00000194 00000-0 36773-4 0 9995 2 40034 097.8589 057.0818 0057589 276.8297 082.6362 14.73699620161140 VELOX-1 1 40057U 14034E 17173.51400052 .00000318 00000-0 52565-4 0 9993 2 40057 098.1895 273.8105 0012094 046.8452 313.3770 14.77125557160543 DAURIA DX 1 1 40071U 14037C 17173.46876784 .00000122 00000-0 23117-4 0 9999 2 40071 098.3383 284.7463 0009550 042.6070 317.5882 14.81018688159756 UKUBE-1 1 40074U 14037F 17173.55391281 .00000301 00000-0 43716-4 0 9992 2 40074 098.3470 288.7110 0005537 047.6829 312.4857 14.83502479159975 HODOYOSHI-1 1 40299U 14070B 17173.50921477 .00000803 00000-0 37860-4 0 9999 2 40299 097.4034 256.1680 0014937 074.7886 342.4978 15.22263128145756 CHUBUSAT-1 1 40300U 14070C 17173.49166920 .00000989 00000-0 47616-4 0 9999 2 40300 097.3959 253.2897 0022445 083.1643 043.6434 15.20864872145590 QSAT-EOS 1 40301U 14070D 17173.51331113 .00002107 00000-0 91037-4 0 9991 2 40301 097.3888 253.3770 0029426 079.3682 338.8549 15.23207239145642 FIREBIRD FU3 1 40377U 15003B 17173.55652221 .00001431 00000-0 64935-4 0 9997 2 40377 099.1226 358.5840 0135943 345.0735 014.6496 15.15376218131810 FIREBIRD FU4 1 40378U 15003C 17173.54867131 .00001409 00000-0 63910-4 0 9992 2 40378 099.1229 358.6123 0136140 345.0046 014.7161 15.15397890131813 GRIFEX 1 40379U 15003D 17173.60810378 .00000999 00000-0 49311-4 0 9993 2 40379 099.1247 356.4405 0142084 352.4261 007.4817 15.12955530131699 NO-84 1 40654U 15025D 17172.41538648 .00005234 00000-0 10495-3 0 00042 2 40654 054.9964 217.7303 0177553 276.5338 081.5502 15.33477677000363 NO-83 1 40655U 15025E 17172.54542930 .00011103 00000-0 17411-3 0 00043 2 40655 054.9819 192.4558 0145802 291.4126 067.1256 15.43097917000358 DEORBITSAIL 1 40719U 15032E 17173.27366099 .00000391 00000-0 63959-4 0 9992 2 40719 097.9802 066.9680 0017639 123.4746 236.8152 14.76060480105072 NUDT-PHONESAT 1 40900U 15049B 17173.57226239 .00002050 00000-0 99885-4 0 9997 2 40900 097.4426 181.4181 0013309 200.1076 159.9636 15.19406581097277 XW-2A 1 40903U 15049E 17173.51879119 .00001918 00000-0 52193-4 0 9998 2 40903 097.4209 199.2881 0013274 243.4718 116.5167 15.38751564098462 XW-2C 1 40906U 15049H 17173.52634031 .00000669 00000-0 39761-4 0 9992 2 40906 097.4545 178.9098 0014869 189.9972 170.0966 15.14537485097042 XW-2D 1 40907U 15049J 17173.57544635 .00000726 00000-0 42749-4 0 9992 2 40907 097.4514 178.7191 0014295 187.5730 172.5288 15.14641274097057 LILACSAT-2 1 40908U 15049K 17173.57786886 .00000383 00000-0 25232-4 0 9996 2 40908 097.4617 178.4928 0015914 186.5232 173.5795 15.13119488096983 XW-2F 1 40910U 15049M 17173.57458871 .00001077 00000-0 60173-4 0 9993 2 40910 097.4534 179.4102 0015175 185.4836 174.6232 15.15522060097093 XW-2B 1 40911U 15049N 17173.58167293 .00000720 00000-0 42474-4 0 9998 2 40911 097.4557 179.1040 0014193 187.9103 172.1908 15.14603455096954 DCBB 1 40912U 15049P 17173.50612581 .00001441 00000-0 74833-4 0 9991 2 40912 097.4506 181.1973 0015486 177.6635 340.1576 15.17622007097090 TW-1C 1 40926U 15051B 17173.39222586 .00007255 00000-0 16747-3 0 9996 2 40926 097.2302 212.9132 0012851 142.9457 336.3728 15.42756527097726 TW-1A 1 40928U 15051D 17173.49744659 .00003439 00000-0 99717-4 0 9998 2 40928 097.2274 209.2171 0012753 170.8116 295.4115 15.36132940097513 IO-86 1 40931U 15052B 17173.51315761 .00000681 00000-0 58423-5 0 9990 2 40931 005.9995 194.7632 0013491 320.8027 039.1091 14.76531231093758 GomX-3 1 40949U 98067HA 16292.18357804 .08527750 12374-4 77882-3 0 9992 2 40949 51.6055 106.7696 0006699 286.1344 73.8944 16.38002265 59645 LQSat 1 40958U 15057A 17173.47873059 .00000023 00000-0 11422-4 0 9995 2 40958 097.9775 248.7059 0019454 051.6808 308.6145 14.72969026091900 AO-85 1 40967U 15058D 17172.50734496 .00000073 00000-0 27886-4 0 00043 2 40967 064.7759 205.7742 0172204 076.3428 285.6785 14.75430007000438 ATHENOXAT-1 1 41168U 15077C 17173.41579950 .00002137 00000-0 83516-4 0 9999 2 41168 014.9872 131.2476 0012535 088.2577 358.4843 15.11590255083831 ChubuSat-2 1 41338U 16012B 17173.14432153 .00000374 00000-0 22727-4 0 9999 2 41338 031.0037 080.7758 0013852 109.0738 251.1399 14.99745851073730 ChubuSat-3 1 41339U 16012C 17173.13839998 .00000385 00000-0 23440-4 0 9992 2 41339 031.0119 079.9486 0013643 115.5094 244.6953 14.99951237073713 Horyu-4 1 41340U 16012D 17173.10991778 .00000519 00000-0 33310-4 0 9992 2 41340 031.0057 077.5893 0014159 123.9263 236.2721 15.00601501073759 OUFTI-1 1 41458U 16025C 17173.56969052 .00001518 00000-0 85833-4 0 9993 2 41458 098.1858 211.4587 0172817 271.6804 086.4629 15.03193662063397 e-st@r-II 1 41459U 16025D 17173.59122974 .00001537 00000-0 86999-4 0 9996 2 41459 098.1833 211.4273 0173679 271.8776 086.2572 15.03021103063384 AAUSAT4 1 41460U 16025E 17173.45241965 .00002278 00000-0 12637-3 0 9995 2 41460 098.1775 211.3857 0166659 270.6245 087.5884 15.03917334063386 MinXSS 1 41474U 98067HU 17125.52237589 .05724416 12300-4 86147-3 0 9995 2 41474 051.6449 208.6967 0008167 329.0747 030.9230 16.33400422055623 CADRE 1 41475U 98067HV 17003.74787607 .12518598 12537-4 55989-3 0 9998 2 41475 51.6110 110.0165 0004040 312.3134 47.7551 16.43344525 36494 NODES 1 1 41477U 98067HX 17172.93742083 .00055534 00000-0 25580-3 0 9992 2 41477 051.6278 338.5199 0001225 188.9530 171.1451 15.83018533062821 NODES 2 1 41478U 98067HY 17173.54930975 .00059736 00000-0 28139-3 0 9991 2 41478 051.6310 335.8854 0001032 201.9024 158.1934 15.82510189062911 LO-87 1 41557U 16033B 17173.38706655 .00001417 00000-0 56084-4 0 9994 2 41557 097.4632 252.9040 0014040 356.2791 003.8341 15.27059393059220 NuSat2 1 41558U 16033C 17173.48601886 .00001309 00000-0 52229-4 0 9993 2 41558 097.4659 253.0574 0013468 354.8993 005.2106 15.26929562059234 Lapan A3 1 41603U 16040E 17173.51413546 .00000223 00000-0 13781-4 0 9994 2 41603 097.4607 235.4359 0015192 058.5727 053.2825 15.19354135055464 Swayam 1 41607U 16040J 17173.39388757 .00001719 00000-0 80924-4 0 9993 2 41607 097.4603 235.6214 0015871 062.0959 298.1881 15.20795932055397 Pratham 1 41783U 16059A 17173.35939976 .00000053 00000-0 19680-4 0 9990 2 41783 098.1666 234.6803 0034529 142.9011 217.4587 14.62839885039356 AlSat 1N 1 41789U 16059G 17173.41201451 .00000089 00000-0 26068-4 0 9990 2 41789 098.1666 235.2427 0029158 136.2796 224.0727 14.64051269039375 ScatSat 1 41790U 16059H 17173.57658187 .00000017 00000-0 15178-4 0 9992 2 41790 098.0646 223.3979 0012383 126.4125 233.8213 14.50111249039045 TY-1 1 41844U 16066D 17173.48396260 .00001173 00000-0 54260-4 0 9990 2 41844 097.4048 180.5592 0014694 215.3644 298.1456 15.22051215034145 CAS-2T 1 41845U 16066E 17173.47555797 .00000064 00000-0 21040-4 0 9990 2 41845 098.7764 189.2357 0365631 232.4699 124.2748 14.37757592032259 Pegasus-1 1 41846U 16066F 17173.60195127 .00000325 00000-0 61208-4 0 9993 2 41846 098.7804 189.1460 0368016 233.4044 123.2752 14.37021360032255 STARS-C 1 41895U 98067KR 17173.58713235 .00022027 00000-0 25434-3 0 9994 2 41895 051.6385 006.4176 0003656 335.3758 024.7061 15.61825749028834 Tancredo 1 1 41931U 98067KT 17173.51909685 .00049002 00000-0 43651-3 0 9997 2 41931 051.6370 003.6899 0005438 281.9241 078.1145 15.67946187024437 TO-89 1 41932U 98067KU 17173.52706976 .00012072 00000-0 15634-3 0 9994 2 41932 051.6411 008.2828 0004869 286.9160 073.1299 15.59330513024378 AOBA-V3LOX3 1 41935U 98067KX 17173.58046478 .00011847 00000-0 15174-3 0 9995 2 41935 051.6408 007.8862 0004319 290.9392 069.1139 15.59649868024488 OSNSAT 1 41939U 98067KZ 17173.56573954 .00024697 00000-0 26361-3 0 9998 2 41939 051.6385 005.5182 0005717 287.1725 072.8643 15.63765917023778 EO-88 1 42017U 17008BX 17173.55932812 .00001649 00000-0 73188-4 0 9995 2 42017 097.4950 235.0056 0006254 187.8959 172.2180 15.22986722019303 SOMP2 1 42700U 98067LH 17173.53322369 .00011283 00000-0 16687-3 0 9991 2 42700 051.6404 011.3080 0006207 346.7789 013.3039 15.55812074005773 HAVELSAT 1 42701U 98067LJ 17173.53411848 .00010650 00000-0 15842-3 0 9992 2 42701 051.6406 011.3147 0006228 348.2817 011.8028 15.55724747005761 Columbia 1 42702U 98067LK 17173.58989263 .00020714 00000-0 29255-3 0 9994 2 42702 051.6402 010.9366 0006133 337.7510 022.3215 15.56509769005709 PHOENIX 1 42706U 98067LP 17173.53411647 .00011235 00000-0 16643-3 0 9994 2 42706 051.6408 011.3156 0001138 328.7383 031.3540 15.55782333005686 X-CubeSat 1 42707U 98067LQ 17173.53451450 .00010756 00000-0 15977-3 0 9997 2 42707 051.6404 011.3173 0001194 326.9468 033.1449 15.55758750005671 qbee 1 42708U 98067LR 17173.53520900 .00010477 00000-0 15602-3 0 9990 2 42708 051.6405 011.3222 0001318 325.9502 034.1405 15.55722318005634 ZA-AeroSat 1 42713U 98067LU 17173.53996914 .00009223 00000-0 13940-3 0 9998 2 42713 051.6406 011.3532 0001975 272.3475 087.7290 15.55485797005349 LINK 1 42714U 98067LV 17173.54000850 .00010373 00000-0 15564-3 0 9997 2 42714 051.6404 011.3532 0002283 277.8995 082.1737 15.55529219005453 UPSat 1 42716U 98067LX 17173.53616343 .00012008 00000-0 17744-3 0 9997 2 42716 051.6405 011.3282 0004490 350.3270 009.7635 15.55769972005479 SpaceCube 1 42717U 98067LY 17173.53821674 .00010486 00000-0 15676-3 0 9993 2 42717 051.6406 011.3417 0004474 350.6873 009.4034 15.55613791004718 Hoopoe 1 42718U 98067LZ 17173.53750863 .00010689 00000-0 15926-3 0 9998 2 42718 051.6406 011.3372 0004477 348.9723 011.1169 15.55680894004713 Challenger 1 42721U 98067MA 17173.54539174 .00014767 00000-0 21806-3 0 9998 2 42721 051.6405 011.3883 0007627 326.5519 033.4989 15.55561382004412 NJUST-1 1 42722U 98067MB 17173.54863110 .00008852 00000-0 13530-3 0 9992 2 42722 051.6407 011.4100 0007430 329.1728 030.8826 15.55221251004410 UNSW-EC0 1 42723U 98067MC 17173.09790329 .00010980 00000-0 16537-3 0 9999 2 42723 051.6408 013.6498 0007352 325.8269 034.2248 15.55338198004327 DUTHsat 1 42724U 98067MD 17173.54732170 .00014678 00000-0 21774-3 0 9997 2 42724 051.6405 011.4017 0006573 329.8137 030.2475 15.55448825004338 LilacSat-1 1 42725U 98067ME 17173.54985459 .00007687 00000-0 11878-3 0 9994 2 42725 051.6406 011.4185 0006420 332.6780 027.3873 15.55148450004333 nSIGHT1 1 42726U 98067MF 17173.55144488 .00005175 00000-0 82793-4 0 9990 2 42726 051.6409 011.4290 0006361 334.4253 025.6422 15.54988430004322 QBITO 1 42728U 98067MH 17173.54803022 .00011676 00000-0 17558-3 0 9996 2 42728 051.6407 011.4070 0003581 341.5671 018.5190 15.55324094004124 Aalto-2 1 42729U 98067MJ 17173.54792759 .00011436 00000-0 17209-3 0 9998 2 42729 051.6406 011.4064 0003578 341.3156 018.7704 15.55329440004133 SUSat 1 42730U 98067MK 17172.77750980 .00010091 00000-0 15298-3 0 9996 2 42730 051.6408 015.2607 0003566 336.8935 023.1895 15.55280325004008 i-INSPIRE II 1 42731U 98067ML 17173.54744889 .00012903 00000-0 19265-3 0 9996 2 42731 051.6398 011.4008 0007318 276.2040 083.8117 15.55394539004174 PolyITAN-2-SAU 1 42732U 98067MM 17173.41892519 .00012069 00000-0 18086-3 0 9990 2 42732 051.6398 012.0424 0007269 275.3075 084.7087 15.55366599004156 SNUSAT-1 1 42733U 98067MN 17173.54853112 .00010263 00000-0 15538-3 0 9994 2 42733 051.6399 011.4083 0007109 277.9558 082.0626 15.55281366004179 ExAlta-1 1 42734U 98067MP 17173.54747068 .00011964 00000-0 17912-3 0 9994 2 42734 051.6401 011.4013 0008947 301.7138 058.2980 15.55390227004128 Aoxiang-1 1 42735U 98067MQ 17173.54855268 .00008777 00000-0 13399-3 0 9990 2 42735 051.6406 011.4094 0008086 325.3527 034.6937 15.55263199005545 BeEagleSat 1 42736U 98067MR 17173.54896885 .00010031 00000-0 15216-3 0 9997 2 42736 051.6405 011.4120 0007940 324.4259 035.6202 15.55252462004237 Atlantis 1 42737U 98067MS 17173.54442347 .00019710 00000-0 28600-3 0 9992 2 42737 051.6403 011.3814 0008146 319.1708 040.8673 15.55795718004128 CAS-4B 1 42759U 17034B 17173.47773253 -.00000219 00000-0 00000-0 0 9992 2 42759 043.0185 257.4427 0007543 011.2536 101.5891 15.08896432001101 CAS-4A 1 42761U 17034D 17173.53858090 -.00000220 00000-0 00000-0 0 9997 2 42761 043.0193 257.1038 0008293 013.7406 071.9494 15.08969127001105 /EX
